When you browse on this site, cookies collect data to enhance your experience and personalize the content and advertising you see.
Visit our Privacy Policy to learn more. By continuing to use the site, you agree to this use of cookies and data.
  • In Hungary
  • List of Countries
  • For 7 days
  • Water Temperature
  • Weather Map
  • News
  • Weather Widgets
  • user-avatar
    Login

    Hourly Weather Malaya Carevschina

    Today, 26 January, Sunday

    Time Temperature Precipitation Wind Pressure Humidity
    00:00 -1°C° 0.1 mm 1 mps 736 mmHg 97%
    01:00 -2°C° 0 mm 1 mps 735 mmHg 97%
    02:00 -2°C° 0 mm 1 mps 735 mmHg 97%
    03:00 -3°C° 0 mm 1 mps 734 mmHg 96%
    04:00 -3°C° 0 mm 1 mps 734 mmHg 96%
    05:00 -4°C° 0 mm 1 mps 734 mmHg 95%
    06:00 -7°C° 0 mm 2 mps 734 mmHg 94%
    07:00 -6°C° 0.1 mm 2 mps 735 mmHg 95%
    08:00 -6°C° 0.1 mm 2 mps 736 mmHg 95%
    09:00 -5°C° 0 mm 2 mps 736 mmHg 95%
    10:00 -6°C° 0 mm 3 mps 737 mmHg 94%
    11:00 -5°C° 0 mm 3 mps 738 mmHg 93%
    12:00 -4°C° 0 mm 4 mps 739 mmHg 92%
    13:00 -6°C° 0.1 mm 5 mps 740 mmHg 92%
    14:00 -6°C° 0.1 mm 6 mps 741 mmHg 92%
    15:00 -6°C° 0 mm 6 mps 742 mmHg 92%
    16:00 -7°C° 0 mm 5 mps 743 mmHg 91%
    17:00 -10°C° 0 mm 5 mps 744 mmHg 89%
    18:00 -11°C° 0 mm 4 mps 745 mmHg 88%
    19:00 -10°C° 0 mm 4 mps 746 mmHg 90%
    20:00 -10°C° 0 mm 4 mps 746 mmHg 91%
    21:00 -10°C° 0 mm 4 mps 747 mmHg 93%
    22:00 -10°C° 0 mm 3 mps 747 mmHg 93%
    23:00 -10°C° 0 mm 3 mps 748 mmHg 93%

    Tomorrow, 27 January, Monday

    Time Temperature Precipitation Wind Pressure Humidity
    00:00 -10°C° 0 mm 3 mps 748 mmHg 93%
    01:00 -10°C° 0 mm 3 mps 748 mmHg 94%
    02:00 -10°C° 0 mm 3 mps 748 mmHg 94%
    03:00 -10°C° 0 mm 3 mps 747 mmHg 95%
    04:00 -10°C° 0.1 mm 3 mps 747 mmHg 94%
    05:00 -10°C° 0.1 mm 4 mps 746 mmHg 94%
    06:00 -9°C° 0.1 mm 4 mps 745 mmHg 94%
    07:00 -8°C° 0.5 mm 5 mps 744 mmHg 94%
    08:00 -9°C° 0.5 mm 6 mps 743 mmHg 94%
    09:00 -8°C° 0.5 mm 6 mps 742 mmHg 94%
    10:00 -6°C° 0.3 mm 7 mps 742 mmHg 91%
    11:00 -5°C° 0.3 mm 8 mps 742 mmHg 89%
    12:00 -3°C° 0.3 mm 9 mps 741 mmHg 86%
    13:00 -5°C° 0.1 mm 9 mps 742 mmHg 85%
    14:00 -6°C° 0.1 mm 9 mps 743 mmHg 83%
    15:00 -9°C° 0.1 mm 9 mps 744 mmHg 82%
    16:00 -10°C° 0 mm 8 mps 746 mmHg 82%
    17:00 -12°C° 0 mm 7 mps 748 mmHg 83%
    18:00 -13°C° 0 mm 7 mps 749 mmHg 84%
    19:00 -14°C° 0 mm 6 mps 751 mmHg 85%
    20:00 -14°C° 0 mm 5 mps 752 mmHg 86%
    21:00 -15°C° 0 mm 5 mps 753 mmHg 87%
    22:00 -16°C° 0 mm 4 mps 754 mmHg 89%
    23:00 -18°C° 0 mm 4 mps 754 mmHg 90%

    Day after tomorrow, 28 January, Tuesday

    Time Temperature Precipitation Wind Pressure Humidity
    00:00 -18°C° 0 mm 3 mps 755 mmHg 92%
    01:00 -19°C° 0 mm 3 mps 756 mmHg 93%
    02:00 -19°C° 0 mm 2 mps 757 mmHg 93%
    03:00 -19°C° 0 mm 2 mps 758 mmHg 94%
    04:00 -20°C° 0 mm 2 mps 758 mmHg 95%
    05:00 -18°C° 0 mm 1 mps 759 mmHg 95%
    06:00 -19°C° 0 mm 1 mps 759 mmHg 96%
    07:00 -18°C° 0 mm 1 mps 760 mmHg 95%
    08:00 -17°C° 0 mm 0 mps 760 mmHg 94%
    09:00 -17°C° 0 mm 0 mps 761 mmHg 93%
    10:00 -15°C° 0 mm 0 mps 761 mmHg 92%
    11:00 -14°C° 0 mm 0 mps 761 mmHg 90%
    12:00 -13°C° 0 mm 1 mps 761 mmHg 88%
    13:00 -13°C° 0 mm 1 mps 761 mmHg 90%
    14:00 -13°C° 0 mm 1 mps 761 mmHg 92%
    15:00 -15°C° 0 mm 2 mps 762 mmHg 93%
    16:00 -16°C° 0 mm 2 mps 762 mmHg 93%
    17:00 -16°C° 0 mm 2 mps 762 mmHg 93%
    18:00 -17°C° 0 mm 2 mps 762 mmHg 94%
    19:00 -17°C° 0 mm 2 mps 762 mmHg 93%
    20:00 -17°C° 0 mm 2 mps 762 mmHg 92%
    21:00 -17°C° 0 mm 2 mps 762 mmHg 91%
    22:00 -18°C° 0 mm 3 mps 762 mmHg 91%
    23:00 -18°C° 0 mm 3 mps 762 mmHg 90%

    29 January, Wednesday

    Time Temperature Precipitation Wind Pressure Humidity
    00:00 -17°C° 0 mm 3 mps 762 mmHg 90%
    01:00 -17°C° 0 mm 3 mps 762 mmHg 91%
    02:00 -17°C° 0 mm 3 mps 762 mmHg 91%
    03:00 -17°C° 0 mm 3 mps 762 mmHg 92%
    04:00 -18°C° 0.1 mm 4 mps 762 mmHg 93%
    05:00 -17°C° 0.1 mm 4 mps 761 mmHg 93%
    06:00 -17°C° 0.1 mm 4 mps 761 mmHg 93%
    07:00 -17°C° 0.1 mm 4 mps 761 mmHg 93%
    08:00 -16°C° 0.1 mm 4 mps 761 mmHg 93%
    09:00 -16°C° 0.1 mm 4 mps 761 mmHg 93%
    10:00 -15°C° 0.1 mm 4 mps 761 mmHg 92%
    11:00 -15°C° 0.1 mm 4 mps 761 mmHg 91%
    12:00 -14°C° 0.1 mm 4 mps 761 mmHg 90%
    13:00 -14°C° 0 mm 4 mps 761 mmHg 90%
    14:00 -14°C° 0 mm 4 mps 761 mmHg 89%
    15:00 -14°C° 0 mm 4 mps 761 mmHg 89%
    16:00 -14°C° 0 mm 4 mps 761 mmHg 89%
    17:00 -15°C° 0 mm 4 mps 761 mmHg 89%
    18:00 -14°C° 0 mm 3 mps 761 mmHg 89%
    19:00 -16°C° 0 mm 4 mps 761 mmHg 88%
    20:00 -16°C° 0 mm 4 mps 761 mmHg 88%
    21:00 -16°C° 0 mm 4 mps 760 mmHg 87%
    22:00 -16°C° 0 mm 4 mps 760 mmHg 89%
    23:00 -16°C° 0 mm 4 mps 760 mmHg 92%

    30 January, Thursday

    Time Temperature Precipitation Wind Pressure Humidity
    00:00 -16°C° 0 mm 4 mps 760 mmHg 94%
    01:00 -15°C° 0.1 mm 4 mps 759 mmHg 94%
    02:00 -14°C° 0.1 mm 4 mps 759 mmHg 93%
    03:00 -12°C° 0.1 mm 4 mps 759 mmHg 93%
    04:00 -12°C° 0.2 mm 4 mps 758 mmHg 94%
    05:00 -11°C° 0.2 mm 4 mps 758 mmHg 94%
    06:00 -10°C° 0.2 mm 4 mps 758 mmHg 94%
    07:00 -9°C° 0.1 mm 4 mps 757 mmHg 94%
    08:00 -7°C° 0.1 mm 5 mps 757 mmHg 94%
    09:00 -6°C° 0.1 mm 5 mps 757 mmHg 93%
    10:00 -6°C° 0 mm 6 mps 757 mmHg 93%
    11:00 -5°C° 0 mm 6 mps 757 mmHg 92%
    12:00 -4°C° 0 mm 6 mps 757 mmHg 91%
    13:00 -6°C° 0 mm 6 mps 756 mmHg 91%
    14:00 -8°C° 0 mm 6 mps 756 mmHg 92%
    15:00 -9°C° 0 mm 6 mps 756 mmHg 92%
    16:00 -10°C° 0 mm 5 mps 756 mmHg 92%
    17:00 -10°C° 0 mm 5 mps 756 mmHg 93%
    18:00 -11°C° 0 mm 5 mps 756 mmHg 93%
    19:00 -11°C° 0.1 mm 5 mps 756 mmHg 93%
    20:00 -11°C° 0.1 mm 5 mps 756 mmHg 93%
    21:00 -11°C° 0.1 mm 5 mps 756 mmHg 93%
    22:00 -11°C° 0.2 mm 5 mps 756 mmHg 93%
    23:00 -11°C° 0.2 mm 5 mps 756 mmHg 94%

    31 January, Friday

    Time Temperature Precipitation Wind Pressure Humidity
    00:00 -11°C° 0.2 mm 5 mps 756 mmHg 94%
    01:00 -10°C° 0.3 mm 4 mps 755 mmHg 94%
    02:00 -10°C° 0.3 mm 4 mps 755 mmHg 94%
    03:00 -10°C° 0.3 mm 4 mps 755 mmHg 94%
    04:00 -10°C° 0.2 mm 4 mps 755 mmHg 94%
    05:00 -11°C° 0.2 mm 4 mps 755 mmHg 94%
    06:00 -11°C° 0.2 mm 4 mps 754 mmHg 93%
    07:00 -11°C° 0.3 mm 4 mps 754 mmHg 94%
    08:00 -11°C° 0.3 mm 4 mps 754 mmHg 94%
    09:00 -12°C° 0.3 mm 5 mps 754 mmHg 94%
    10:00 -12°C° 0.6 mm 5 mps 753 mmHg 94%
    11:00 -11°C° 0.6 mm 4 mps 753 mmHg 94%
    12:00 -11°C° 0.6 mm 4 mps 753 mmHg 94%
    13:00 -12°C° 1.2 mm 5 mps 752 mmHg 94%
    14:00 -12°C° 1.2 mm 5 mps 752 mmHg 94%
    15:00 -12°C° 1.2 mm 5 mps 751 mmHg 94%
    16:00 -11°C° 0.6 mm 5 mps 751 mmHg 94%
    17:00 -11°C° 0.6 mm 5 mps 751 mmHg 94%
    18:00 -11°C° 0.6 mm 5 mps 750 mmHg 93%
    19:00 -10°C° 0.1 mm 4 mps 750 mmHg 94%
    20:00 -10°C° 0.1 mm 4 mps 750 mmHg 94%
    21:00 -10°C° 0.1 mm 4 mps 750 mmHg 94%
    22:00 -9°C° 0.1 mm 4 mps 750 mmHg 94%
    23:00 -8°C° 0.1 mm 3 mps 750 mmHg 94%
    Show more